{"data":{"norad_id":46727,"intl_designator":"2020-073BK","name":"STARLINK-1830","alt_names":[],"object_type":"PAYLOAD","status":"ACTIVE","operator":null,"country":"US","launch_date":"2020-10-18","launch_site_code":"AFETR","launch_vehicle":null,"mission":null,"orbit_class":"UNKNOWN","rcs_meters":null,"size_class":null,"mass_kg":null,"dimensions":null,"purposes":["comms"],"wikipedia_slug":null,"has_3d_model":false,"image_url":null,"decayed_at":null,"tle_current":{"epoch":"2026-05-24T18:45:23.022144Z","epoch_age_seconds":91029,"freshness":"FRESH","line1":"1 46727U 20073BK  26144.78151646  .00065943  00000+0  56251-3 0  9991","line2":"2 46727  53.0364 171.0358 0006864 354.1630   5.9305 15.68906006309858","mean_motion":15.68906006,"eccentricity":0.0006864,"inclination_deg":53.0364,"raan_deg":171.0358,"arg_perigee_deg":354.163,"mean_anomaly_deg":5.9305,"bstar":0.00056251,"rev_number":30985,"period_min":91.783701158194,"perigee_km":357.40200638487,"apogee_km":366.6549055228,"semimajor_km":6740.1654559538,"source":"CELESTRAK","updated_at":"2026-05-25T13:38:16.518589Z"}}}